SCP
0 0 0 0 0 0 0 0 0 0 0 0 0 0 0 0 0 0 0 0 0 0 0 0 0 0 0 1 1 1 1 1 1 1 1 1 1 1 1 1 1 1 1
0 0 0 0 0 0 0 0 0 0 0 0 0 0 0 0 0 0 0 0 0 0 0 0 0 0 0 0 0 1 1 1 1 1 1 1 1 1 1 1 1 1 1
0 0 0 0 0 0 0 0 0 0 0 0 0 0 0 0 0 0 0 0 0 0 0 0 0 0 0 0 0 0 1 1 1 1 1 0 1 1 1 1 1 1 1
0 1 1 0 0 0 0 0 0 0 0 0 0 0 0 0 0 0 0 0 0 0 0 0 0 0 0 0 0 0 0 1 1 0 0 0 0 0 1 1 1 1 1
0 1 1 0 0 0 0 0 0 0 0 0 0 0 0 0 0 0 0 0 0 0 0 0 0 0 0 0 0 0 0 0 0 0 0 0 0 0 0 1 1 1 1
0 0 0 0 0 0 0 0 0 0 0 0 0 0 0 0 0 0 0 0 0 0 0 0 0 0 0 0 0 0 0 0 0 0 0 0 0 0 0 1 1 1 1
0 0 0 0 0 0 0 0 0 0 0 0 0 0 0 0 0 0 0 0 0 0 0 0 0 0 0 0 0 0 0 0 0 0 0 0 0 0 0 1 1 1 1
0 0 0 0 0 0 0 0 0 0 0 0 0 0 0 0 0 0 0 0 0 0 0 0 0 0 0 0 0 0 0 0 0 0 0 0 0 0 0 1 1 1 1
0 0 0 0 0 0 0 0 0 0 0 0 0 0 0 0 0 0 0 0 0 0 0 0 0 0 0 0 0 0 0 0 0 0 0 0 0 0 0 0 1 1 1
0 0 0 0 0 1 0 0 0 0 0 0 0 0 0 0 0 0 0 0 0 0 0 0 0 0 0 0 0 0 0 1 1 0 0 0 1 0 0 0 0 1 1
0 0 0 0 0 0 0 0 0 0 0 0 0 0 0 0 0 0 0 0 0 0 0 0 0 0 0 0 0 0 0 0 0 0 0 0 0 0 0 0 0 0 0
1 1 1 0 0 0 0 0 0 0 0 0 0 0 0 0 0 0 0 0 0 0 0 0 0 0 0 0 0 0 0 0 0 0 0 0 0 0 0 0 0 0 0
1 1 1 1 0 0 0 0 0 0 0 0 0 0 0 0 0 0 0 0 0 0 0 0 0 0 0 0 0 0 0 0 0 0 0 0 0 0 0 0 0 0 0
1 1 1 1 0 0 0 0 0 0 0 0 0 0 0 0 0 0 0 0 0 0 0 0 0 0 0 0 0 0 0 0 0 0 0 0 0 0 0 0 0 0 0
1 1 1 1 0 0 0 0 0 0 0 0 0 0 0 0 0 0 0 0 0 0 0 0 0 0 0 0 0 0 0 0 0 0 0 0 0 0 0 0 0 0 0
0 0 0 0 0 0 0 0 0 0 0 0 0 0 0 0 0 0 0 0 0 0 0 0 0 0 0 0 0 0 0 0 0 0 0 0 0 0 0 0 0 0 0
0 0 0 0 0 0 0 0 0 0 0 0 0 0 0 0 0 0 0 0 0 0 0 0 0 0 0 0 0 0 0 0 0 0 0 0 0 0 0 0 0 0 0
0 0 0 0 0 0 0 0 0 0 0 0 0 0 0 0 0 0 0 0 0 0 0 0 0 0 0 0 0 0 0 0 0 0 0 0 0 0 0 0 0 0 0
0 0 0 0 0 0 0 0 0 0 0 0 0 0 0 0 0 0 0 0 0 0 0 0 0 0 0 0 0 0 0 0 0 0 0 0 0 0 0 0 0 0 0
0 0 0 0 0 0 0 0 0 0 0 0 0 0 0 0 0 0 0 0 0 0 0 0 0 0 0 0 0 0 0 0 0 0 0 0 0 0 0 0 0 0 0
0 0 0 0 0 0 0 0 0 0 0 0 0 0 0 0 0 0 0 0 0 0 0 0 0 0 0 0 0 0 0 0 0 0 0 0 0 0 0 0 0 0 0
0 0 0 0 0 0 0 0 0 0 0 0 0 0 0 0 0 0 0 0 0 0 0 0 0 0 0 0 0 0 0 0 0 0 0 0 0 0 0 0 0 0 0
0 0 0 0 0 0 0 0 0 0 0 0 0 0 0 0 0 0 0 0 0 0 0 0 0 0 0 0 0 0 0 0 0 0 0 0 0 0 0 0 0 0 0
0 0 0 0 0 0 0 0 0 0 0 0 0 0 0 0 0 0 0 0 0 0 0 0 0 0 0 0 0 0 0 0 0 0 0 0 0 0 0 0 0 0 0
0 0 0 0 0 0 0 0 0 0 0 0 0 0 0 0 0 0 0 0 0 0 0 0 0 0 0 0 0 0 0 0 0 0 0 0 0 0 0 0 0 0 0
0 0 0 0 0 0 0 0 0 0 0 0 0 0 0 0 0 0 0 0 0 0 0 0 0 0 0 0 0 0 0 0 0 0 0 0 0 0 0 0 0 0 0
Wind_Speed
9 8 8 6 5 4 3 4 2 3 2 2 2 2 1 2 1 1 2 2 3 3 3 3 3 2 2 2 2 1 2 2 1 1 2 2 3 2 3 2 2 2 3
10 10 8 7 4 4 3 3 3 3 3 2 1 1 1 2 1 1 1 3 3 3 4 3 2 2 2 2 2 1 1 1 1 1 0 1 1 2 3 2 2 2 1
10 12 9 8 5 4 4 2 3 3 3 2 1 2 1 2 1 1 1 2 2 2 2 4 3 3 2 1 2 1 1 1 1 0 1 0 1 1 2 2 2 2 1
7 9 8 7 6 5 4 3 3 3 3 2 2 2 2 1 2 2 1 2 1 2 2 3 3 3 1 1 2 1 1 0 1 1 1 1 0 1 1 2 2 2 2
7 8 8 7 6 6 4 2 3 3 4 2 1 2 2 2 2 2 2 2 1 1 2 3 3 3 2 1 1 1 1 0 0 1 1 1 1 1 0 1 1 1 1
7 7 8 7 6 6 5 3 3 4 3 1 1 1 1 2 2 3 2 2 1 1 2 2 3 2 2 2 2 1 1 0 0 1 1 0 0 0 0 0 1 1 1
7 7 8 7 6 7 5 4 4 3 3 2 1 1 1 1 1 2 2 2 2 2 2 3 3 2 2 2 1 1 1 0 0 0 0 0 1 0 0 0 0 1 1
6 7 8 8 7 7 6 4 4 3 3 2 1 1 1 0 1 1 2 2 2 1 2 2 2 2 2 3 2 1 1 0 0 1 0 0 0 0 1 0 0 1 1
6 7 8 8 8 7 6 5 5 4 4 2 1 1 1 1 1 1 1 1 2 2 3 3 2 1 1 1 2 1 2 1 1 1 1 0 0 0 0 0 1 1 0
6 7 8 8 8 7 6 6 5 4 4 3 2 2 1 1 0 1 2 2 2 2 2 3 2 2 1 1 1 1 1 1 1 0 0 1 0 0 0 0 0 1 1
7 7 7 7 7 7 7 6 6 5 4 3 2 2 1 0 1 0 0 1 1 1 2 2 2 2 2 2 2 1 1 2 2 1 1 1 0 0 0 0 0 0 1
7 7 8 8 7 7 7 7 6 5 5 3 3 3 2 2 1 0 0 1 1 1 2 2 2 3 3 3 2 2 2 2 2 2 1 0 0 1 0 0 0 0 1
7 7 7 8 8 7 7 7 6 6 5 4 3 3 3 2 1 0 0 1 1 1 1 1 2 2 2 2 2 2 1 1 1 1 1 1 2 1 1 1 0 0 0
8 8 8 8 8 8 7 7 7 6 7 5 4 3 3 3 2 1 0 1 2 2 2 2 2 2 2 3 3 2 2 2 2 2 2 3 3 2 2 1 1 1 0
8 9 9 8 8 8 8 7 7 7 7 7 5 4 3 3 3 2 1 0 1 2 2 2 2 2 2 3 4 4 3 2 2 2 2 3 3 4 2 2 2 2 1
8 9 10 10 10 10 9 8 8 8 7 7 6 5 3 3 3 2 2 1 1 1 1 1 1 2 2 4 5 3 4 3 2 2 1 1 2 2 1 1 1 1 1
6 8 9 10 10 11 10 9 9 8 8 7 7 6 5 4 3 3 2 2 2 1 1 1 1 0 1 2 3 3 2 3 2 2 1 1 2 2 1 1 2 2 3
4 6 8 9 10 10 10 9 9 8 8 8 7 7 6 5 4 3 3 3 2 2 2 2 1 1 1 1 1 3 2 2 2 1 1 1 2 3 3 2 2 1 1
3 4 6 7 9 9 10 10 10 9 8 8 8 8 7 6 5 5 4 3 2 2 2 2 2 2 1 2 1 1 2 2 1 0 2 2 2 4 5 2 2 2 2
1 2 4 5 7 8 9 10 10 10 9 8 8 8 7 7 6 5 4 3 3 3 2 2 2 2 2 1 1 1 2 2 1 1 2 4 3 4 5 3 3 3 3
1 2 3 4 5 7 9 9 9 10 9 9 8 7 7 7 6 5 3 3 3 3 2 2 2 2 2 3 2 1 1 2 2 1 1 2 4 4 4 3 2 2 4
1 2 3 3 4 6 8 8 8 8 9 9 8 7 7 6 6 5 4 3 3 3 3 3 3 2 2 3 3 2 0 2 2 1 2 2 4 4 3 2 3 5 5
2 2 3 4 4 6 7 8 7 8 9 9 8 7 7 6 5 5 4 3 3 2 2 2 2 2 2 3 4 1 1 1 1 1 3 3 3 2 1 2 4 4 3
3 3 4 5 5 6 7 7 7 9 10 10 9 8 7 6 5 4 3 3 2 2 1 1 1 2 3 2 1 0 0 1 1 0 1 2 2 2 2 3 3 2 2
4 4 5 6 6 6 7 7 8 10 10 10 9 8 7 7 6 5 3 3 3 2 2 1 2 2 3 2 3 2 2 1 1 1 1 2 2 3 3 3 3 3 4
6 5 6 6 7 7 7 8 9 10 11 10 9 7 6 6 7 7 5 8 6 8 8 7 6 5 6 6 6 6 5 4 4 3 3 3 3 3 3 3 3 4 4
Wind_Direction
165 147 141 139 142 137 117 114 114 102 84 58 3 358 347 324 1 354 22 338 340 345 323 324 328 332 324 311 308 312 309 297 267 282 290 273 239 237 240 243 258 233 191
158 144 151 147 158 143 130 126 106 90 88 85 349 305 349 321 350 331 356 346 351 345 330 336 324 317 293 301 299 294 288 290 283 187 252 294 304 271 241 233 243 242 187
164 156 159 151 158 150 142 128 114 118 105 101 43 1 348 301 342 348 24 339 338 345 338 330 323 312 311 299 286 282 282 276 290 262 164 185 237 284 270 232 232 237 206
153 148 152 154 160 151 139 143 127 112 102 93 67 333 303 1 1 349 10 311 1 7 353 328 321 313 323 320 306 337 291 244 289 306 292 281 189 192 297 296 247 230 215
151 148 151 153 154 138 131 131 119 107 95 85 113 287 352 7 352 343 5 334 27 1 6 335 324 329 336 340 322 327 305 275 223 277 297 315 312 277 180 290 307 296 251
150 148 144 139 133 122 124 128 123 111 111 135 193 200 30 1 340 351 2 330 332 354 22 342 334 346 349 346 343 331 332 44 285 280 279 136 269 276 271 239 302 289 296
152 150 144 141 138 136 142 152 149 139 142 188 216 134 85 335 346 0 342 325 349 8 9 354 346 357 345 338 344 322 306 274 128 263 298 334 282 299 35 71 333 331 306
153 154 149 146 147 150 156 166 158 153 154 198 194 131 123 294 23 10 325 343 2 354 352 342 341 348 349 348 350 327 309 1 59 243 159 147 295 358 68 113 90 353 327
153 151 150 151 154 159 162 169 163 168 162 187 174 123 105 87 35 323 322 354 344 358 4 336 335 356 16 359 356 356 356 6 27 5 29 107 300 82 52 62 113 126 47
160 157 154 157 159 162 163 167 168 169 161 175 192 142 110 92 46 326 18 0 351 9 336 342 354 10 32 48 38 19 0 10 38 77 48 59 53 59 75 138 107 104 136
164 161 156 159 159 158 162 169 173 172 160 170 179 140 150 182 239 205 56 308 321 351 338 342 358 21 31 40 52 18 29 26 13 5 89 98 87 107 52 71 122 142 132
159 158 158 160 162 167 173 176 177 169 158 168 169 165 168 174 238 214 144 301 325 337 339 358 18 30 39 35 33 14 51 59 23 3 32 67 114 118 121 82 255 194 181
163 162 161 166 169 174 178 177 174 164 155 163 176 184 173 169 194 214 235 301 323 327 323 9 29 30 33 36 35 33 35 57 29 360 19 28 52 43 52 70 47 8 139
174 171 169 172 174 177 181 180 174 164 163 167 182 193 183 167 176 173 207 311 328 339 350 22 32 31 30 24 18 15 15 31 42 29 42 51 50 36 10 7 360 359 358
184 179 176 179 178 180 183 182 176 171 171 169 180 190 189 169 166 162 170 223 332 342 353 11 16 23 33 29 27 5 357 9 29 34 55 77 88 72 51 28 2 1 355
196 190 184 184 184 185 186 184 178 176 174 174 178 176 184 168 166 174 179 193 205 306 346 1 9 21 34 48 38 19 343 342 5 19 48 128 131 121 121 89 3 294 260
206 198 192 188 187 189 186 182 179 176 177 177 175 173 181 176 175 185 181 193 193 215 265 282 293 46 76 42 12 355 331 323 345 356 1 19 63 66 22 319 278 274 255
216 202 196 188 184 186 180 174 171 174 179 179 174 172 175 177 177 184 193 203 205 195 204 226 227 199 177 214 308 317 297 292 303 332 352 43 47 34 25 358 346 344 334
227 211 200 188 182 183 176 171 173 177 180 179 176 174 175 178 180 187 194 197 211 217 204 209 221 207 208 229 252 306 284 278 282 7 44 52 73 42 29 15 354 5 354
239 219 201 192 183 179 171 173 178 180 182 178 178 177 173 171 179 188 190 187 197 211 213 217 213 203 184 185 198 259 280 293 291 111 88 64 65 59 42 26 16 12 350
270 230 207 198 187 173 167 178 183 187 179 170 171 168 163 168 176 181 182 193 198 197 204 219 218 195 155 140 128 107 344 318 332 30 71 60 72 68 49 46 34 349 330
269 231 224 210 191 175 172 183 191 181 161 156 160 164 166 175 175 169 183 196 186 193 213 219 217 170 135 125 128 113 10 325 352 20 42 59 75 66 54 40 0 350 349
266 234 232 221 203 189 182 190 187 163 153 155 163 168 169 170 161 163 176 186 186 194 211 197 184 151 121 107 100 88 340 334 98 72 73 90 80 46 54 1 357 5 11
259 235 227 222 216 203 194 195 175 162 159 163 168 171 174 167 158 154 161 161 168 181 194 171 145 125 103 76 46 19 22 96 123 156 127 111 74 42 18 35 32 32 37
273 241 230 226 222 212 203 193 177 169 171 172 174 176 172 160 149 122 84 110 83 105 127 105 88 96 102 76 67 67 58 53 62 51 76 71 63 50 37 38 40 35 34
286 268 243 232 227 219 210 195 185 178 180 181 179 173 164 154 145 133 107 64 87 89 86 90 102 86 100 110 91 80 72 65 62 75 80 72 68 64 54 47 39 37 31